Tracking 31027 objects as of 19-Jul-2025
HD Live streaming from Space Station
objects crossing your sky now

STARLINK-4795

Track STARLINK-4795 now!
10-day predictions
STARLINK-4795 is classified as:


NORAD ID: 53856
Int'l Code: 2022-114AQ
Perigee: 546.3 km
Apogee: 547.5 km
Inclination: 53.2 °
Period: 95.4 minutes
Semi major axis: 6917 km
RCS: Unknown
Launch date: September 19, 2022
Source: United States (US)
Launch site: AIR FORCE EASTERN TEST RANGE (AFETR)
Your satellite tracking list
FREGAT DEB
Track 1 satellite(s)




NASA's NSSDC Master Catalog

Two Line Element Set (TLE):
1 53856U 22114AQ  25199.55006306  .00000084  00000-0  23335-4 0  9990
2 53856  53.2169 255.2931 0000876  83.3062 276.8030 15.08839785157761
Source of the keplerian elements: AFSPC